| time (UTC) | temp F | wind direction | speed knots | gust knots | rain 1hr in | rain 24hr in | rain mn in | humidity % | barometer mb |
| 20260504081233 | 61 | 0.0 | 0.0 | 0.00 | 0.01 | 0.00 | 81 | 1014.1 | |
| 20260504080132 | 61 | 0.0 | 0.0 | 0.00 | 0.01 | 0.00 | 81 | 1014.1 | |
| 20260504070129 | 58 | 328 | 1.7 | 2.6 | 0.00 | 0.01 | 0.00 | 81 | 1013.7 |
| 20260504050020 | 57 | 338 | 1.7 | 4.3 | 0.00 | 0.01 | 0.00 | 81 | 1012.7 |
| 20260504045019 | 56 | 331 | 1.7 | 4.3 | 0.00 | 0.01 | 0.00 | 81 | 1012.7 |
| 20260504044108 | 56 | 338 | 1.7 | 3.5 | 0.00 | 0.01 | 0.00 | 81 | 1012.7 |
| 20260504043048 | 56 | 338 | 1.7 | 3.5 | 0.00 | 0.01 | 0.00 | 81 | 1012.6 |
| 20260504042107 | 56 | 338 | 2.6 | 6.1 | 0.00 | 0.01 | 0.00 | 80 | 1012.5 |
| 20260504041146 | 56 | 338 | 1.7 | 3.5 | 0.00 | 0.01 | 0.00 | 80 | 1012.3 |
| 20260504040116 | 56 | 0.0 | 0.0 | 0.00 | 0.01 | 0.00 | 80 | 1012.4 | |
| 20260504035225 | 56 | 0 | 4.3 | 6.1 | 0.00 | 0.01 | 0.00 | 78 | 1012.3 |
| 20260504034044 | 57 | 23 | 3.5 | 6.1 | 0.00 | 0.01 | 0.00 | 77 | 1012.2 |
| 20260504033213 | 58 | 0.0 | 0.0 | 0.00 | 0.01 | 0.00 | 77 | 1012.4 | |
| 20260504032112 | 57 | 0.0 | 0.0 | 0.00 | 0.01 | 0.00 | 77 | 1012.5 | |
| 20260504031112 | 57 | 0.0 | 0.0 | 0.00 | 0.01 | 0.00 | 76 | 1012.4 | |
| 20260504030112 | 58 | 0.0 | 0.0 | 0.00 | 0.01 | 0.00 | 77 | 1012.3 | |
| 20260504025111 | 58 | 0.0 | 0.0 | 0.00 | 0.01 | 0.00 | 77 | 1012.4 | |
| 20260504024110 | 58 | 0.0 | 0.0 | 0.00 | 0.01 | 0.00 | 75 | 1012.6 | |
| 20260504023039 | 59 | 0.0 | 0.0 | 0.00 | 0.01 | 0.00 | 75 | 1012.5 | |
| 20260504022208 | 58 | 0.0 | 0.0 | 0.00 | 0.01 | 0.00 | 76 | 1012.6 | |
| 20260504021038 | 58 | 0.0 | 0.0 | 0.00 | 0.01 | 0.00 | 76 | 1012.7 | |
| 20260504020037 | 58 | 0.0 | 0.0 | 0.00 | 0.01 | 0.00 | 75 | 1012.8 | |
| 20260504015122 | 58 | 0.0 | 0.0 | 0.00 | 0.01 | 0.00 | 75 | 1012.8 | |
| 20260504014251 | 58 | 0.0 | 0.0 | 0.00 | 0.01 | 0.00 | 74 | 1012.7 | |
| 20260504013121 | 58 | 0.0 | 0.0 | 0.00 | 0.01 | 0.00 | 73 | 1012.5 | |
| 20260504012050 | 58 | 0.0 | 0.0 | 0.00 | 0.01 | 0.00 | 72 | 1012.5 | |
| 20260504011019 | 58 | 0.0 | 0.0 | 0.00 | 0.01 | 0.00 | 72 | 1012.4 | |
| 20260504010048 | 58 | 0.0 | 0.0 | 0.00 | 0.01 | 0.00 | 72 | 1012.6 | |
| 20260504005048 | 58 | 0.0 | 0.0 | 0.00 | 0.01 | 0.00 | 72 | 1012.6 | |
| 20260504004117 | 58 | 0.0 | 0.0 | 0.00 | 0.01 | 0.00 | 72 | 1012.6 | |
| 20260504003046 | 58 | 0.0 | 0.0 | 0.00 | 0.01 | 0.00 | 71 | 1012.8 | |
| 20260504002046 | 59 | 0.0 | 0.0 | 0.00 | 0.01 | 0.00 | 71 | 1012.6 | |
| 20260504001155 | 59 | 0.0 | 0.0 | 0.00 | 0.01 | 0.00 | 70 | 1012.8 | |
| 20260504000044 | 59 | 0.0 | 0.0 | 0.00 | 0.01 | 0.00 | 70 | 1012.9 | |
| 20260503235103 | 59 | 0.0 | 0.0 | 0.00 | 0.01 | 0.00 | 70 | 1013.0 | |
| 20260503234042 | 60 | 114 | 1.7 | 3.5 | 0.00 | 0.01 | 0.00 | 70 | 1013.1 |
| 20260503233042 | 60 | 0.0 | 0.0 | 0.00 | 0.01 | 0.00 | 70 | 1013.1 | |
| 20260503232111 | 59 | 113 | 0.9 | 2.6 | 0.00 | 0.01 | 0.00 | 70 | 1013.3 |
| 20260503231040 | 59 | 51 | 1.7 | 3.5 | 0.00 | 0.01 | 0.00 | 71 | 1013.5 |
| 20260503230040 | 59 | 358 | 1.7 | 3.5 | 0.00 | 0.01 | 0.00 | 71 | 1013.5 |
| 20260503225149 | 59 | 340 | 1.7 | 2.6 | 0.00 | 0.01 | 0.00 | 71 | 1013.5 |
| 20260503224058 | 59 | 332 | 0.9 | 3.5 | 0.00 | 0.01 | 0.00 | 71 | 1013.6 |
| 20260503223057 | 60 | 342 | 1.7 | 4.3 | 0.00 | 0.01 | 0.00 | 70 | 1013.5 |
| 20260503222107 | 60 | 8 | 1.7 | 3.5 | 0.00 | 0.01 | 0.00 | 69 | 1013.5 |
| 20260503221116 | 60 | 47 | 0.9 | 2.6 | 0.00 | 0.01 | 0.00 | 69 | 1013.5 |
| 20260503220055 | 60 | 0.0 | 0.0 | 0.00 | 0.01 | 0.00 | 70 | 1013.5 | |
| 20260503215035 | 60 | 0.0 | 0.0 | 0.00 | 0.01 | 0.01 | 70 | 1013.5 | |
| 20260503214204 | 60 | 0.0 | 0.0 | 0.00 | 0.01 | 0.01 | 69 | 1013.3 | |
| 20260503213033 | 60 | 0.0 | 0.0 | 0.00 | 0.01 | 0.01 | 69 | 1013.3 | |
| 20260503212032 | 60 | 0.0 | 0.0 | 0.00 | 0.01 | 0.01 | 68 | 1013.3 | |
| 20260503211032 | 60 | 0.0 | 0.0 | 0.00 | 0.01 | 0.01 | 67 | 1013.3 | |
| 20260503210331 | 60 | 0.0 | 0.0 | 0.00 | 0.01 | 0.01 | 67 | 1013.2 | |
| 20260503205150 | 60 | 0.0 | 0.0 | 0.00 | 0.01 | 0.01 | 67 | 1013.2 | |
| 20260503204150 | 60 | 357 | 1.7 | 3.5 | 0.00 | 0.01 | 0.01 | 67 | 1013.0 |
| 20260503203059 | 60 | 350 | 2.6 | 6.1 | 0.01 | 0.01 | 0.01 | 69 | 1012.8 |
| 20260503202029 | 60 | 1 | 2.6 | 6.1 | 0.01 | 0.01 | 0.01 | 69 | 1012.6 |
| 20260503201058 | 60 | 71 | 3.5 | 7.0 | 0.01 | 0.01 | 0.01 | 70 | 1012.6 |
| 20260503200027 | 60 | 44 | 3.5 | 7.0 | 0.01 | 0.01 | 0.01 | 70 | 1012.5 |
| 20260503195026 | 60 | 103 | 2.6 | 12.2 | 0.01 | 0.01 | 0.01 | 71 | 1012.5 |
| 20260503194135 | 60 | 35 | 3.5 | 9.6 | 0.01 | 0.01 | 0.01 | 71 | 1012.5 |
| 20260503193055 | 60 | 37 | 5.2 | 9.6 | 0.00 | 0.00 | 0.00 | 69 | 1012.5 |
| 20260503192114 | 61 | 32 | 4.3 | 13.9 | 0.00 | 0.00 | 0.00 | 68 | 1012.3 |
| 20260503191023 | 61 | 125 | 4.3 | 8.7 | 0.00 | 0.00 | 0.00 | 66 | 1012.4 |
| 20260503190042 | 61 | 164 | 1.7 | 6.1 | 0.00 | 0.00 | 0.00 | 66 | 1012.3 |
| 20260503185022 | 61 | 115 | 5.2 | 12.2 | 0.00 | 0.00 | 0.00 | 66 | 1012.2 |
| 20260503184051 | 61 | 98 | 5.2 | 10.4 | 0.00 | 0.00 | 0.00 | 67 | 1012.3 |
| 20260503183050 | 61 | 144 | 7.8 | 12.2 | 0.00 | 0.00 | 0.00 | 67 | 1012.2 |
| 20260503182050 | 61 | 124 | 3.5 | 13.0 | 0.00 | 0.00 | 0.00 | 69 | 1012.1 |
| 20260503181019 | 61 | 108 | 4.3 | 12.2 | 0.00 | 0.00 | 0.00 | 71 | 1012.1 |
| 20260503180018 | 61 | 101 | 3.5 | 6.1 | 0.00 | 0.00 | 0.00 | 72 | 1012.3 |
| 20260503175108 | 61 | 110 | 2.6 | 6.1 | 0.00 | 0.00 | 0.00 | 72 | 1012.7 |
| 20260503174127 | 62 | 141 | 2.6 | 7.0 | 0.00 | 0.00 | 0.00 | 70 | 1012.8 |
| 20260503173046 | 63 | 344 | 2.6 | 4.3 | 0.00 | 0.00 | 0.00 | 67 | 1013.2 |
| 20260503172045 | 63 | 122 | 5.2 | 10.4 | 0.00 | 0.00 | 0.00 | 64 | 1013.2 |
| 20260503171045 | 63 | 129 | 5.2 | 18.2 | 0.00 | 0.00 | 0.00 | 64 | 1013.1 |
| 20260503170104 | 63 | 135 | 4.3 | 16.5 | 0.00 | 0.00 | 0.00 | 63 | 1013.0 |